Weather History for KNTU - January, 2013

Change the Weather History Date:

Thursday, January 3, 2013

  Actual Average Record
Temperature  
Mean Temperature 33 °F -  
Max Temperature 39 °F 50 °F 73 °F (2000)
Min Temperature 27 °F 32 °F -29 °F (2001)
Degree Days  
Heating Degree Days 32    
Moisture  
Dew Point 23 °F    
Average Humidity 61    
Maximum Humidity 85    
Minimum Humidity 41    
Precipitation  
Precipitation 0.00 in - - ()
Sea Level Pressure  
Sea Level Pressure 30.22 in    
Wind  
Wind Speed 6 mph (North)    
Max Wind Speed 10 mph    
Max Gust Speed -    
Visibility 10 miles    
Events      
Averages and records for this station are not official NWS values.
T = Trace of Precipitation, MM = Missing Value Source: NWS Daily Summary

Daily Weather History Graph

Daily Weather History Graph

Search for Another Location

Airport or City:

Trip Planner

Search our weather history database for the weather conditions in past years. The results will help you decide how hot, cold, wet, or windy it might be!

Date:

Astronomy

Jan. 03, 2013 Rise Set
Actual Time 7:17 AM EST 5:00 PM EST
Civil Twilight 6:48 AM EST 5:29 PM EST
Nautical Twilight 6:16 AM EST 6:01 PM EST
Astronomical Twilight 5:44 AM EST 6:33 PM EST
Moon 11:22 PM EST (1/3) 10:37 AM EST (1/3)
Length of Visible Light 10h 40m
Length of Day
9h 43m
Waning Gibbous, 65% of the Moon is Illuminated
Jan 3
Waning Gibbous
Jan 4
Last Quarter
Jan 11
New
Jan 18
First Quarter
Jan 26
Full

Hourly Weather History & Observations

Time (EST) Temp. Windchill Dew Point Humidity Pressure Visibility Wind Dir Wind Speed Gust Speed Precip Events Conditions
12:56 AM 37.0 °F 33.3 °F 27.0 °F 67% 30.21 in 10.0 mi NNE 4.6 mph - N/A   Overcast
1:56 AM 37.0 °F 30.4 °F 25.0 °F 62% 30.22 in 10.0 mi NNE 9.2 mph - N/A   Overcast
2:56 AM 37.0 °F 31.0 °F 24.1 °F 59% 30.21 in 10.0 mi NNE 8.1 mph - N/A   Overcast
3:56 AM 36.0 °F 29.6 °F 24.1 °F 62% 30.20 in 10.0 mi NNE 8.1 mph - N/A   Overcast
4:56 AM 36.0 °F 29.0 °F 21.9 °F 57% 30.20 in 10.0 mi NNE 9.2 mph - N/A   Overcast
5:56 AM 36.0 °F 32.1 °F 19.0 °F 50% 30.21 in 10.0 mi NE 4.6 mph - N/A   Overcast
6:56 AM 36.0 °F 31.1 °F 21.0 °F 55% 30.22 in 10.0 mi North 5.8 mph - N/A   Mostly Cloudy
7:56 AM 37.0 °F 33.3 °F 23.0 °F 57% 30.24 in 10.0 mi North 4.6 mph - N/A   Overcast
8:56 AM 37.0 °F 31.6 °F 24.1 °F 59% 30.24 in 10.0 mi NNE 6.9 mph - N/A   Overcast
9:56 AM 37.9 °F 31.5 °F 24.1 °F 57% 30.26 in 10.0 mi North 9.2 mph - N/A   Overcast
10:56 AM 37.9 °F 30.9 °F 19.0 °F 47% 30.25 in 10.0 mi North 10.4 mph - N/A   Overcast
11:56 AM 37.9 °F 35.5 °F 19.0 °F 47% 30.22 in 10.0 mi Variable 3.5 mph - N/A   Overcast
12:56 PM 39.9 °F 35.1 °F 18.0 °F 41% 30.19 in 10.0 mi NNE 6.9 mph - N/A   Overcast
1:56 PM 39.9 °F 34.5 °F 19.0 °F 43% 30.18 in 10.0 mi NW 8.1 mph - N/A   Overcast
2:56 PM 37.9 °F 31.5 °F 23.0 °F 55% 30.19 in 10.0 mi NNW 9.2 mph - N/A   Overcast
3:56 PM 37.9 °F 34.4 °F 23.0 °F 55% 30.20 in 10.0 mi NNW 4.6 mph - N/A   Overcast
4:56 PM 36.0 °F 33.3 °F 23.0 °F 59% 30.21 in 10.0 mi WNW 3.5 mph - N/A   Mostly Cloudy
5:56 PM 36.0 °F - 24.1 °F 62% 30.22 in 10.0 mi Calm Calm - N/A   Mostly Cloudy
6:56 PM 33.1 °F - 26.1 °F 75% 30.23 in 10.0 mi Calm Calm - N/A   Mostly Cloudy
7:56 PM 32.0 °F - 25.0 °F 75% 30.25 in 10.0 mi Calm Calm - N/A   Mostly Cloudy
8:04 PM - - - N/A% - - North - - N/A   Unknown
8:56 PM 30.9 °F - 24.1 °F 76% 30.24 in 10.0 mi Calm Calm - N/A   Scattered Clouds
9:56 PM 27.0 °F 21.6 °F 21.9 °F 81% 30.24 in 10.0 mi West 4.6 mph - N/A   Partly Cloudy
10:00 PM - - - N/A% - - North - - N/A   Unknown
10:56 PM 28.0 °F - 23.0 °F 81% 30.24 in 10.0 mi Calm Calm - N/A   Clear
11:56 PM 28.0 °F 24.2 °F 24.1 °F 85% 30.23 in 8.0 mi WSW 3.5 mph - N/A   Clear